N387QS MMSM-MMMY

Flight info

Callsign N387QS
Flight time N/A
Altitude 43000
Route AXIRI2D AXIRI UT138 CVM UJ15E RETOS RETOS1B
Aircraft E55P/M-SBDFGHJ2RWY/LB2

Departure

Time 2026-04-20 02:07
Airport Felipe Ángeles International Airport (MMSM)

Arrival

Time N/A
Airport Monterrey International Airport (MMMY)
Time Latitude Longitude Altitude Speed Heading
2026-04-20 01:49 19.73057 -99.02696 7368 ft 0 kts 319°
2026-04-20 01:58 19.73059 -99.02697 7368 ft 0 kts 337°
2026-04-20 01:59 19.73063 -99.02696 7368 ft 1 kts 57°
2026-04-20 01:59 19.73060 -99.02685 7368 ft 0 kts 125°
2026-04-20 02:00 19.73058 -99.02683 7368 ft 0 kts 122°
2026-04-20 02:00 19.73056 -99.02677 7368 ft 0 kts 112°
2026-04-20 02:00 19.73054 -99.02669 7369 ft 1 kts 100°
2026-04-20 02:00 19.73055 -99.02643 7369 ft 5 kts 79°
2026-04-20 02:01 19.73065 -99.02591 7369 ft 8 kts 78°
2026-04-20 02:01 19.73073 -99.02518 7368 ft 11 kts 99°
2026-04-20 02:01 19.73035 -99.02457 7368 ft 12 kts 139°
2026-04-20 02:02 19.72976 -99.02403 7368 ft 9 kts 139°
2026-04-20 02:02 19.72960 -99.02389 7368 ft 0 kts 139°
2026-04-20 02:04 19.72955 -99.02384 7368 ft 2 kts 139°
2026-04-20 02:04 19.72939 -99.02370 7368 ft 4 kts 139°
2026-04-20 02:04 19.72914 -99.02346 7368 ft 5 kts 137°
2026-04-20 02:05 19.72891 -99.02323 7368 ft 3 kts 137°
2026-04-20 02:05 19.72879 -99.02312 7369 ft 1 kts 136°
2026-04-20 02:05 19.72876 -99.02309 7369 ft 0 kts 134°
2026-04-20 02:05 19.72872 -99.02301 7369 ft 2 kts 101°
2026-04-20 02:06 19.72878 -99.02281 7369 ft 3 kts 60°
2026-04-20 02:06 19.72935 -99.02210 7369 ft 34 kts 49°
2026-04-20 02:06 19.73230 -99.01854 7371 ft 92 kts 49°
2026-04-20 02:06 19.73764 -99.01202 7384 ft 136 kts 49°
2026-04-20 02:07 19.74429 -99.00393 7562 ft 159 kts 49°
2026-04-20 02:07 19.75170 -98.99512 8147 ft 162 kts 48°
2026-04-20 02:07 19.75940 -98.98625 8717 ft 167 kts 49°
2026-04-20 02:07 19.76709 -98.97714 9321 ft 169 kts 50°
2026-04-20 02:08 19.77516 -98.96735 9719 ft 186 kts 50°
2026-04-20 02:08 19.78388 -98.95644 10161 ft 201 kts 52°
2026-04-20 02:08 19.79274 -98.94456 10624 ft 215 kts 54°
2026-04-20 02:08 19.80283 -98.93214 11131 ft 228 kts 38°
2026-04-20 02:09 19.81746 -98.92579 11811 ft 234 kts
2026-04-20 02:09 19.83351 -98.92812 12401 ft 243 kts 337°
2026-04-20 02:09 19.84695 -98.93871 13089 ft 246 kts 309°
2026-04-20 02:09 19.85644 -98.95409 13754 ft 249 kts 302°
2026-04-20 02:10 19.86556 -98.96978 14421 ft 252 kts 301°
2026-04-20 02:10 19.87465 -98.98559 15103 ft 252 kts 301°
2026-04-20 02:10 19.88457 -99.00060 15686 ft 254 kts 315°
2026-04-20 02:10 19.89887 -99.01236 16120 ft 266 kts 327°
2026-04-20 02:11 19.91517 -99.02198 16631 ft 274 kts 333°
2026-04-20 02:11 19.93277 -99.03006 17216 ft 278 kts 343°
2026-04-20 02:11 19.95172 -99.03471 17818 ft 281 kts 348°
2026-04-20 02:11 19.97105 -99.03896 18378 ft 286 kts 348°
2026-04-20 02:12 19.99061 -99.04307 18966 ft 290 kts 348°
2026-04-20 02:12 20.01054 -99.04663 19588 ft 292 kts 350°
2026-04-20 02:12 20.03084 -99.04969 20140 ft 296 kts 351°
2026-04-20 02:12 20.05151 -99.05271 20514 ft 307 kts 350°
2026-04-20 02:13 20.07298 -99.05537 21088 ft 310 kts 358°
2026-04-20 02:13 20.09429 -99.05231 21623 ft 316 kts 10°
2026-04-20 02:13 20.11566 -99.04658 22263 ft 316 kts 12°
2026-04-20 02:13 20.13706 -99.04054 22688 ft 323 kts 12°
2026-04-20 02:14 20.15926 -99.03445 23098 ft 330 kts 12°
2026-04-20 02:14 20.18137 -99.02838 23706 ft 328 kts
2026-04-20 02:14 20.20376 -99.02442 24346 ft 325 kts
2026-04-20 02:14 20.22626 -99.02168 24834 ft 326 kts 360°
2026-04-20 02:15 20.24899 -99.02269 25039 ft 333 kts 346°
2026-04-20 02:15 20.27204 -99.02820 25416 ft 337 kts 343°
2026-04-20 02:15 20.29458 -99.03339 26022 ft 335 kts 343°
2026-04-20 02:15 20.31785 -99.03868 26326 ft 343 kts 343°
2026-04-20 02:16 20.34141 -99.04389 26617 ft 350 kts 343°
2026-04-20 02:16 20.36521 -99.04920 27114 ft 349 kts 343°
2026-04-20 02:16 20.38891 -99.05469 27732 ft 345 kts 342°
2026-04-20 02:16 20.41232 -99.06008 28191 ft 346 kts 342°
2026-04-20 02:17 20.43579 -99.06537 28582 ft 348 kts 343°
2026-04-20 02:17 20.44139 -99.06646 28668 ft 350 kts 346°
2026-04-20 02:18 20.45177 -99.06773 28792 ft 356 kts 351°
2026-04-20 02:18 20.47687 -99.06824 29071 ft 364 kts 355°
2026-04-20 02:18 20.50216 -99.06779 29561 ft 363 kts 355°
2026-04-20 02:18 20.52736 -99.06742 30131 ft 359 kts 355°
2026-04-20 02:19 20.55211 -99.06710 30660 ft 357 kts 355°
2026-04-20 02:19 20.57688 -99.06685 31017 ft 359 kts 354°
2026-04-20 02:19 20.60242 -99.06681 31149 ft 367 kts 354°
2026-04-20 02:19 20.62803 -99.06673 31544 ft 369 kts 355°
2026-04-20 02:20 20.65353 -99.06644 32009 ft 367 kts 355°
2026-04-20 02:20 20.67938 -99.06590 32327 ft 371 kts 355°
2026-04-20 02:20 20.70551 -99.06518 32549 ft 376 kts 355°
2026-04-20 02:20 20.73159 -99.06442 33075 ft 372 kts 355°
2026-04-20 02:21 20.78244 -99.06305 34175 ft 364 kts 355°
2026-04-20 02:21 20.80798 -99.06244 34502 ft 366 kts 355°
2026-04-20 02:21 20.83404 -99.06175 34406 ft 380 kts 356°
2026-04-20 02:22 20.86050 -99.06039 34640 ft 384 kts 357°
2026-04-20 02:22 20.88734 -99.05876 35090 ft 383 kts 357°
2026-04-20 02:22 20.91368 -99.05708 35536 ft 381 kts 357°
2026-04-20 02:22 20.94040 -99.05550 35844 ft 382 kts 357°
2026-04-20 02:23 20.96681 -99.05408 36157 ft 383 kts 356°
2026-04-20 02:23 20.99366 -99.05279 36471 ft 384 kts 356°
2026-04-20 02:23 21.02047 -99.05164 36786 ft 385 kts 356°
2026-04-20 02:23 21.04733 -99.05064 37092 ft 386 kts 355°
2026-04-20 02:24 21.07412 -99.04979 37394 ft 386 kts 355°
2026-04-20 02:24 21.10108 -99.04907 37705 ft 387 kts 355°
2026-04-20 02:24 21.12814 -99.04800 37923 ft 391 kts 356°
2026-04-20 02:24 21.15566 -99.04616 38042 ft 396 kts 356°
2026-04-20 02:25 21.18329 -99.04481 38237 ft 397 kts 355°
2026-04-20 02:25 21.21077 -99.04404 38586 ft 395 kts 354°
2026-04-20 02:25 21.23838 -99.04318 38921 ft 397 kts 356°
2026-04-20 02:25 21.26592 -99.04105 39049 ft 403 kts 359°
2026-04-20 02:26 21.29410 -99.03779 39131 ft 409 kts
2026-04-20 02:26 21.32227 -99.03384 39349 ft 411 kts
2026-04-20 02:26 21.35072 -99.02979 39721 ft 410 kts
2026-04-20 02:26 21.37925 -99.02567 40127 ft 408 kts
2026-04-20 02:27 21.40716 -99.02158 40514 ft 408 kts
2026-04-20 02:27 21.43534 -99.01739 40898 ft 407 kts
2026-04-20 02:27 21.46317 -99.01321 41256 ft 407 kts
2026-04-20 02:27 21.49132 -99.00893 41614 ft 407 kts
2026-04-20 02:28 21.51929 -99.00464 41953 ft 407 kts
2026-04-20 02:28 21.54540 -99.00070 42108 ft 410 kts
2026-04-20 02:28 21.57404 -98.99741 42125 ft 414 kts 359°
2026-04-20 02:28 21.60269 -98.99514 42467 ft 413 kts 358°
2026-04-20 02:29 21.63134 -98.99299 42933 ft 410 kts 358°
2026-04-20 02:29 21.68761 -98.98876 42860 ft 399 kts 358°
2026-04-20 02:29 21.71520 -98.98689 43250 ft 390 kts 356°
2026-04-20 02:30 21.74234 -98.98609 43464 ft 387 kts 355°
2026-04-20 02:30 21.79649 -98.98493 43497 ft 395 kts 354°
2026-04-20 02:30 21.82448 -98.98441 43600 ft 399 kts 355°
2026-04-20 02:31 21.85227 -98.98396 43583 ft 406 kts 354°
2026-04-20 02:31 21.88096 -98.98367 43406 ft 406 kts 354°
2026-04-20 02:31 21.90876 -98.98341 43308 ft 403 kts 354°
2026-04-20 02:32 21.96519 -98.98350 43155 ft 408 kts 353°
2026-04-20 02:32 22.02231 -98.98390 43220 ft 409 kts 353°
2026-04-20 02:32 22.05076 -98.98427 43339 ft 408 kts 353°
2026-04-20 02:33 22.07891 -98.98456 43313 ft 410 kts 353°
2026-04-20 02:33 22.10784 -98.98480 43091 ft 416 kts 353°
2026-04-20 02:33 22.13695 -98.98515 43146 ft 415 kts 353°
2026-04-20 02:33 22.16570 -98.98566 43361 ft 412 kts 353°
2026-04-20 02:34 22.19446 -98.98593 43142 ft 418 kts 353°
2026-04-20 02:34 22.25283 -98.98652 42911 ft 421 kts 353°
2026-04-20 02:34 22.28227 -98.98688 42757 ft 418 kts 353°
2026-04-20 02:35 22.31105 -98.98738 42731 ft 415 kts 352°
2026-04-20 02:35 22.34034 -98.98780 42265 ft 419 kts 353°
2026-04-20 02:35 22.36904 -98.98801 42763 ft 407 kts 353°
2026-04-20 02:36 22.42605 -98.98596 42782 ft 413 kts 357°
2026-04-20 02:36 22.48352 -98.98164 42928 ft 413 kts 357°
2026-04-20 02:36 22.51201 -98.97962 43036 ft 412 kts 357°
2026-04-20 02:37 22.54098 -98.97774 43098 ft 412 kts 356°
2026-04-20 02:37 22.59855 -98.97488 43254 ft 416 kts 355°